[[{"header":{"parameterUnit":"m.s-1","parameterCategory":1,"la1":30.2991,"la2":30.254,"lo1":-89.0895,"lo2":-89.0444,"dy":0.0017,"dx":0.0017,"nx":28,"ny":28,"refTime":"2023-04-05T15:00:00:Z","depth":0,"parameterNumber":2,"parameterNumberName":"U-component_of_WINDS"},"data":[0,0,0,0,0,0,0,0,0,0,0,0,0,0,0,0,0,0,0,0,0,0,0,0,0,0,0,0,0,0,0,0,0,0,0,0,0,0,0,0,0,0,0,0,0,0,0,0,0,0,0,0,0,0,0,0,0,0,-3.346,-3.346,0,-3.3471,-3.3471,-3.3471,-3.3435,-3.3434,-3.3433,-3.3432,-3.3444,-3.3445,-3.3446,0,0,0,0,0,0,0,0,0,0,0,0,0,-3.3412,-3.3413,-3.346,-3.346,-3.346,-3.3471,-3.3471,-3.3471,-3.3435,-3.3434,-3.3433,-3.3431,-3.3443,-3.3445,-3.3447,0,0,0,0,0,0,0,0,0,0,0,0,0,-3.3429,-3.3413,-3.346,-3.3444,-3.3442,-3.3471,-3.3471,-3.3471,-3.3436,-3.3434,-3.3432,-3.3431,-3.3443,-3.3445,-3.3447,-3.3492,0,0,-3.3453,-3.3454,0,0,0,0,0,0,0,0,-3.3428,-3.3431,-3.3446,-3.3445,-3.3443,-3.345,-3.3458,-3.3478,-3.3436,-3.3438,-3.3432,-3.343,-3.3447,-3.3449,-3.3454,-3.3492,-3.3493,-3.3453,-3.3454,-3.3455,-3.3456,0,0,0,0,0,0,0,-3.3427,-3.343,-3.3464,-3.3446,-3.3445,-3.3437,-3.3438,-3.3462,-3.3452,-3.3438,-3.3435,-3.3437,-3.3446,-3.3453,-3.3454,-3.3493,-3.3453,-3.3455,-3.3456,-3.3457,-3.3571,-3.3573,0,0,0,0,0,0,-3.3427,-3.3429,-3.3464,-3.3465,-3.3431,-3.3439,-3.344,-3.345,-3.3451,-3.345,-3.3438,-3.3435,-3.345,-3.3452,-3.3455,-3.3507,-3.3455,-3.3457,-3.3458,-3.3569,-3.3571,-3.3573,0,0,0,0,0,0,-3.3427,-3.3431,-3.3464,-3.3446,-3.345,-3.3442,-3.3453,-3.3451,-3.3457,-3.3452,-3.345,-3.3446,-3.3449,-3.3452,-3.3483,-3.3507,-3.3458,-3.346,-3.3567,-3.357,-3.3572,-3.3614,0,0,0,0,0,0,-3.3425,-3.3431,-3.3446,-3.3447,-3.3451,-3.3491,-3.3454,-3.3452,-3.346,-3.3456,-3.3459,-3.3458,-3.3448,-3.348,-3.3485,-3.3509,-3.3461,-3.3565,-3.3568,-3.3571,-3.361,-3.3617,-3.3624,0,0,0,0,0,-3.3424,-3.3457,-3.3447,-3.3452,-3.347,-3.3492,-3.3494,-3.3482,-3.3462,-3.3479,-3.3476,-3.3458,-3.3505,-3.3484,-3.3489,-3.3514,-3.3563,-3.3567,-3.3571,-3.3607,-3.3616,-3.3624,0,0,0,0,0,0,-3.3459,-3.3457,-3.3446,-3.3481,-3.3487,-3.3486,-3.3506,-3.3492,-3.3504,-3.35,-3.3485,-3.3486,-3.352,-3.3521,-3.3497,-3.3559,-3.3531,-3.3536,-3.3556,-3.3565,-3.3572,-3.3569,-3.3463,0,0,0,0,0,-3.3472,-3.3489,-3.3486,-3.3517,-3.3521,-3.3514,-3.3522,-3.3513,-3.3519,-3.3521,-3.3521,-3.3528,-3.3544,-3.3555,-3.357,-3.3612,-3.3612,-3.3632,-3.3639,-3.3645,-3.3648,-3.3671,-3.368,-3.3587,-3.3587,-3.3587,0,0,-3.3496,-3.3497,-3.3508,-3.3525,-3.3528,-3.3547,-3.3516,-3.3536,-3.3551,-3.3524,-3.3553,-3.3554,-3.3561,-3.3598,-3.3614,-3.36,-3.3675,-3.365,-3.3654,-3.3655,-3.3676,-3.3685,-3.3693,-3.359,-3.3589,-3.3589,0,0,-3.355,-3.3553,-3.3579,-3.3584,-3.3591,-3.3586,-3.3593,-3.3595,-3.3594,-3.3624,-3.3605,-3.3623,-3.3652,-3.3658,-3.3664,-3.3726,-3.3709,-3.3732,-3.3766,-3.3789,-3.3796,-3.3803,-3.3824,-3.3832,-3.3737,-3.3737,-3.3737,0,-3.3579,-3.3606,-3.3594,-3.3617,-3.3625,-3.3604,-3.3631,-3.3637,-3.3649,-3.3655,-3.364,-3.3677,-3.368,-3.3718,-3.3734,-3.3741,-3.3748,-3.3729,-3.3796,-3.3803,-3.3808,-3.3828,-3.3836,-3.3739,-3.3739,-3.3739,-3.3738,0,-3.3641,-3.3661,-3.3682,-3.3693,-3.3705,-3.373,-3.3723,-3.3736,-3.3728,-3.3725,-3.3757,-3.3761,-3.3777,-3.3787,-3.3778,-3.3824,-3.3815,-3.3799,-3.3769,-3.382,-3.3838,-3.3846,-3.3743,-3.3742,-3.3741,-3.374,0,0,-3.3712,-3.3721,-3.3728,-3.3734,-3.3742,-3.3757,-3.3783,-3.3799,-3.381,-3.3821,-3.3842,-3.3869,-3.3855,-3.3863,-3.3855,-3.3876,-3.3924,-3.3857,-3.3857,-3.3867,-3.3976,-3.3986,-3.3995,-3.3915,-3.3917,-3.3918,-3.3974,0,-3.3764,-3.3806,-3.3799,-3.384,-3.3859,-3.3842,-3.3864,-3.3873,-3.3873,-3.3889,-3.389,-3.3909,-3.3889,-3.3894,-3.3913,-3.3914,-3.3945,-3.391,-3.3934,-3.3935,-3.3929,-3.4004,-3.4015,-3.4068,-3.3982,-3.3983,-3.3984,0,-3.3828,-3.3841,-3.3884,-3.3892,-3.3899,-3.3919,-3.3935,-3.3951,-3.3961,-3.396,-3.3972,-3.3962,-3.3989,-3.3963,-3.4,-3.3977,-3.3987,-3.399,-3.3992,-3.399,-3.396,-3.4003,-3.4084,-3.4091,-3.3995,-3.3994,-3.3994,0,-3.3873,-3.3903,-3.3932,-3.3938,-3.3948,-3.3963,-3.3968,-3.3977,-3.3988,-3.4002,-3.4009,-3.4027,-3.4036,-3.4051,-3.4047,-3.4029,-3.4086,-3.4059,-3.4085,-3.4085,-3.4094,-3.4093,-3.4176,-3.4107,-3.4107,-3.4106,-3.4106,0,-3.393,-3.3956,-3.3953,-3.3971,-3.4002,-3.3995,-3.4026,-3.4029,-3.4038,-3.4057,-3.4046,-3.4064,-3.4059,-3.4078,-3.4076,-3.4107,-3.4112,-3.4112,-3.411,-3.4111,-3.4111,-3.4115,-3.411,-3.4108,-3.4108,-3.4108,-3.4107,0,-3.3983,-3.3982,-3.4013,-3.4021,-3.4024,-3.4046,-3.4054,-3.4071,-3.4073,-3.4098,-3.4103,-3.4105,-3.4127,-3.4126,-3.4151,-3.415,-3.4188,-3.4184,-3.4184,-3.4182,-3.4207,-3.4204,-3.4293,-3.4304,-3.423,-3.4231,-3.4231,0,-3.4017,-3.4037,-3.4048,-3.4061,-3.4067,-3.4087,-3.4098,-3.4095,-3.4107,-3.4123,-3.4139,-3.4161,-3.4177,-3.4214,-3.4218,-3.4238,-3.4232,-3.4262,-3.4235,-3.4235,-3.423,-3.4228,-3.423,-3.4266,-3.4267,-3.4268,-3.4268,0,-3.4077,-3.4077,-3.4093,-3.4112,-3.4126,-3.414,-3.4153,-3.4164,-3.4162,-3.4178,-3.42,-3.4214,-3.4241,-3.4262,-3.4282,-3.4288,-3.4278,-3.4278,-3.4285,-3.4284,-3.4282,-3.4282,-3.4195,-3.4275,-3.4274,-3.4273,-3.4273,-3.4273,-3.412,-3.4138,-3.4149,-3.4169,-3.4179,-3.4192,-3.421,-3.4214,-3.4233,-3.4254,-3.4252,-3.4278,-3.4291,-3.4317,-3.4325,-3.4346,-3.4335,-3.4346,-3.4348,-3.4349,-3.4351,-3.4282,-3.435,-3.435,-3.435,-3.435,-3.435,0,-3.4178,-3.4186,-3.4205,-3.4223,-3.424,-3.4231,-3.4246,-3.426,-3.4283,-3.4296,-3.4314,-3.4341,-3.4363,-3.4371,-3.4392,-3.4408,-3.4404,-3.4413,-3.441,-3.4412,-3.436,-3.4351,-3.4416,-3.4416,-3.4416,-3.4416,-3.4416,-3.4416,-3.421,-3.4239,-3.4241,-3.4277,-3.4284,-3.4309,-3.4318,-3.4331,-3.4342,-3.4373,-3.4391,-3.4396,-3.4408,-3.4431,-3.4451,-3.4453,-3.4461,-3.4472,-3.4472,-3.4422,-3.4416,-3.4409,-3.44,-3.4474,-3.4474,-3.4521,-3.4522,-3.4522]},{"header":{"parameterUnit":"m.s-1","parameterCategory":1,"la1":30.2991,"la2":30.254,"lo1":-89.0895,"lo2":-89.0444,"dy":0.0017,"dx":0.0017,"nx":28,"ny":28,"refTime":"2023-04-05T15:00:00:Z","depth":0,"parameterNumber":3,"parameterNumberName":"V-component_of_WINDS"},"data":[0,0,0,0,0,0,0,0,0,0,0,0,0,0,0,0,0,0,0,0,0,0,0,0,0,0,0,0,0,0,0,0,0,0,0,0,0,0,0,0,0,0,0,0,0,0,0,0,0,0,0,0,0,0,0,0,0,0,2.0759,2.0759,0,2.0775,2.0775,2.0775,2.0877,2.0879,2.0882,2.0884,2.0894,2.0892,2.089,0,0,0,0,0,0,0,0,0,0,0,0,0,2.0811,2.081,2.0759,2.0759,2.0759,2.0775,2.0775,2.0775,2.0876,2.0879,2.0882,2.0885,2.0894,2.0892,2.089,0,0,0,0,0,0,0,0,0,0,0,0,0,2.0803,2.0809,2.0759,2.0812,2.0817,2.0775,2.0775,2.0775,2.0876,2.088,2.0883,2.0887,2.0895,2.0892,2.0889,2.0795,0,0,2.088,2.0878,0,0,0,0,0,0,0,0,2.0804,2.0801,2.0804,2.0808,2.0813,2.0828,2.0797,2.0782,2.0875,2.0853,2.0884,2.0889,2.0868,2.0868,2.0862,2.0796,2.0796,2.0879,2.0878,2.0876,2.0875,0,0,0,0,0,0,0,2.0804,2.0801,2.0765,2.0803,2.0809,2.0833,2.0836,2.0794,2.0839,2.0855,2.0863,2.0864,2.0872,2.0865,2.0863,2.0796,2.088,2.0877,2.0875,2.0874,2.0655,2.0652,0,0,0,0,0,0,2.0798,2.0801,2.0764,2.0765,2.0818,2.0829,2.0833,2.0819,2.084,2.0847,2.086,2.0868,2.0868,2.0867,2.0864,2.0757,2.0876,2.0873,2.0872,2.0659,2.0655,2.065,0,0,0,0,0,0,2.0799,2.0794,2.0764,2.0785,2.0783,2.0824,2.0808,2.0818,2.0811,2.0844,2.0852,2.0846,2.0871,2.0868,2.0813,2.0759,2.0872,2.0869,2.0664,2.0658,2.0652,2.0541,0,0,0,0,0,0,2.08,2.0793,2.0759,2.0784,2.0782,2.0713,2.0805,2.0815,2.0806,2.0817,2.0832,2.0838,2.0874,2.0817,2.0809,2.0756,2.0867,2.0669,2.0661,2.0654,2.0549,2.0532,2.0517,0,0,0,0,0,2.0801,2.0725,2.0757,2.0752,2.074,2.071,2.0708,2.0753,2.0801,2.0767,2.0788,2.0838,2.0766,2.081,2.0803,2.0748,2.0673,2.0663,2.0655,2.0557,2.0535,2.0517,0,0,0,0,0,0,2.069,2.0729,2.0765,2.0695,2.0698,2.0727,2.0685,2.0728,2.0716,2.0726,2.078,2.0782,2.0719,2.0728,2.0777,2.0659,2.0728,2.0717,2.0656,2.0635,2.0619,2.0618,2.0864,0,0,0,0,0,2.0658,2.0632,2.0667,2.0601,2.0602,2.0642,2.0631,2.0665,2.067,2.0672,2.0689,2.069,2.0668,2.0652,2.0634,2.0551,2.0556,2.051,2.0494,2.048,2.047,2.0429,2.0409,2.0621,2.0621,2.0621,0,0,2.059,2.0608,2.0588,2.058,2.0587,2.0557,2.0643,2.0608,2.0586,2.0665,2.0615,2.0628,2.0633,2.0564,2.0534,2.0569,2.0413,2.0469,2.0458,2.0455,2.0417,2.0397,2.0379,2.0615,2.0616,2.0617,0,0,2.0452,2.0463,2.0411,2.0417,2.0427,2.0456,2.0443,2.0465,2.0478,2.0428,2.0488,2.0462,2.0422,2.0425,2.042,2.0285,2.033,2.0277,2.0191,2.015,2.0133,2.0119,2.0071,2.0054,2.0267,2.0267,2.0266,0,2.0366,2.0326,2.0378,2.034,2.0334,2.0408,2.0355,2.0357,2.036,2.0354,2.0394,2.0348,2.0356,2.0289,2.0257,2.025,2.0237,2.0275,2.0132,2.0118,2.0105,2.006,2.0042,2.026,2.0261,2.0262,2.0262,0,2.022,2.0191,2.0147,2.0152,2.0141,2.0095,2.0139,2.0122,2.0158,2.0181,2.013,2.0144,2.013,2.0116,2.0149,2.0054,2.0076,2.0123,2.0193,2.0077,2.0036,2.002,2.0251,2.0253,2.0255,2.0257,0,0,2.0011,2.0047,2.003,2.0033,2.0051,2.0029,1.9987,1.9976,1.9961,1.996,1.9926,1.9892,1.9936,1.9931,1.9965,1.9929,1.9822,1.9981,1.9982,1.9951,1.972,1.9685,1.9664,1.9853,1.985,1.9847,1.972,0,1.9879,1.9812,1.9858,1.9782,1.9756,1.9827,1.979,1.9796,1.9817,1.9797,1.982,1.9796,1.9855,1.9853,1.9821,1.9842,1.9777,1.9852,1.9821,1.9819,1.9818,1.9643,1.9605,1.9484,1.9704,1.9701,1.9699,0,1.9717,1.9713,1.9635,1.966,1.9651,1.9617,1.9612,1.9593,1.9601,1.9619,1.9614,1.9658,1.9617,1.9687,1.9631,1.9682,1.9672,1.968,1.9677,1.9675,1.9752,1.9637,1.9446,1.9428,1.9674,1.9676,1.9678,0,1.9574,1.9548,1.9499,1.95,1.9527,1.9502,1.9512,1.9525,1.9516,1.951,1.9505,1.9494,1.9487,1.9477,1.9516,1.9563,1.9456,1.9528,1.9469,1.9468,1.9443,1.9444,1.9248,1.9435,1.9436,1.9436,1.9436,0,1.9422,1.9372,1.9436,1.9405,1.9351,1.9404,1.9348,1.9366,1.9376,1.935,1.9409,1.9382,1.9435,1.9414,1.9444,1.9394,1.939,1.9403,1.9411,1.9398,1.9396,1.9392,1.9401,1.9431,1.9432,1.9433,1.9434,0,1.9253,1.9294,1.9245,1.9276,1.9283,1.9242,1.9268,1.924,1.9266,1.9232,1.9227,1.9266,1.9244,1.9283,1.9264,1.9284,1.9215,1.9236,1.9213,1.9219,1.9158,1.9164,1.8953,1.8929,1.9131,1.9129,1.9127,0,1.9154,1.9118,1.9146,1.9134,1.9142,1.912,1.9113,1.9163,1.9153,1.9161,1.9132,1.9116,1.9105,1.9066,1.9092,1.9079,1.91,1.9028,1.9099,1.9087,1.91,1.9102,1.9099,1.9013,1.901,1.9008,1.9007,0,1.8975,1.8997,1.8985,1.898,1.897,1.8967,1.8969,1.8955,1.9009,1.8993,1.8973,1.8965,1.8948,1.8931,1.8924,1.8933,1.8978,1.8984,1.897,1.8956,1.8944,1.8951,1.9174,1.8989,1.8991,1.8992,1.8993,1.8994,1.8839,1.881,1.8827,1.8811,1.8819,1.8819,1.8796,1.882,1.8805,1.8797,1.8827,1.88,1.881,1.8806,1.881,1.8789,1.8821,1.88,1.8795,1.8789,1.878,1.8948,1.8787,1.8788,1.8789,1.8789,1.8789,0,1.8663,1.8678,1.8663,1.8666,1.8653,1.87,1.8705,1.8691,1.8667,1.8674,1.8663,1.864,1.8624,1.865,1.8638,1.8615,1.8636,1.8611,1.8613,1.8614,1.8751,1.8765,1.8594,1.8594,1.8594,1.8594,1.8594,1.8594,1.8571,1.8526,1.855,1.8509,1.8524,1.85,1.8499,1.8499,1.8506,1.8478,1.8466,1.8484,1.8498,1.8488,1.8475,1.8483,1.8476,1.8443,1.8458,1.8585,1.8604,1.8623,1.8636,1.8441,1.8441,1.8323,1.8322,1.8321]}]]